CW0133 Weather Reports


Display with metric or nautical units.
time (UTC)temp
F
wind
direction
speed
MPH
gust
MPH
rain 1hr
in
rain 24hr
in
rain mn
in
humidity
%
barometer
mb
20220808130503 78 123 2.0 6.0 0.00 0.00 0.00 90 1019.3
20220808130003 78 123 1.0 4.0 0.00 0.00 0.00 90 1019.3
20220808125503 77 123 1.0 4.0 0.00 0.00 0.00 90 1019.3
20220808125003 77 123 0.0 4.0 0.00 0.00 0.00 91 1019.3
20220808124503 77 123 0.0 1.0 0.00 0.00 0.00 92 1019.2
20220808124003 76 123 0.0 1.0 0.00 0.00 0.00 91 1019.2
20220808123503 76 123 0.0 1.0 0.00 0.00 0.00 92 1019.2
20220808123003 76 123 0.0 1.0 0.00 0.00 0.00 92 1019.1
20220808122503 76 123 0.0 2.0 0.00 0.00 0.00 91 1018.9
20220808122003 76 123 0.0 2.0 0.00 0.00 0.00 91 1018.8
20220808121503 76 123 0.0 1.0 0.00 0.00 0.00 91 1018.8
20220808121003 76 123 0.0 2.0 0.00 0.00 0.00 91 1018.7
20220808120503 76 123 0.0 2.0 0.00 0.00 0.00 91 1018.7
20220808120003 76 123 0.0 2.0 0.00 0.00 0.00 90 1018.6
20220808115503 77 123 1.0 2.0 0.00 0.00 0.00 90 1018.6
20220808115003 77 123 1.0 2.0 0.00 0.00 0.00 90 1018.5
20220808114503 77 123 1.0 5.0 0.00 0.00 0.00 91 1018.5
20220808114004 77 123 2.0 5.0 0.00 0.00 0.00 90 1018.5
20220808113504 77 123 1.0 5.0 0.00 0.00 0.00 90 1018.5
20220808113004 77 123 1.0 4.0 0.00 0.00 0.00 90 1018.5
20220808112503 77 123 2.0 5.0 0.00 0.00 0.00 89 1018.5
20220808112004 77 123 1.0 5.0 0.00 0.00 0.00 89 1018.6
20220808111504 77 123 2.0 4.0 0.00 0.00 0.00 89 1018.6
20220808111003 77 123 2.0 4.0 0.00 0.00 0.00 89 1018.6
20220808110504 77 123 2.0 6.0 0.00 0.00 0.00 89 1018.6
20220808110004 77 123 2.0 6.0 0.00 0.00 0.00 89 1018.5
20220808105504 77 123 2.0 6.0 0.00 0.00 0.00 89 1018.4
20220808105004 77 123 2.0 5.0 0.00 0.00 0.00 89 1018.4
20220808104504 77 123 2.0 5.0 0.00 0.00 0.00 89 1018.4
20220808104004 77 123 2.0 6.0 0.00 0.00 0.00 89 1018.3
20220808103504 77 123 2.0 6.0 0.00 0.00 0.00 89 1018.3
20220808103004 77 123 2.0 5.0 0.00 0.00 0.00 88 1018.3
20220808102504 77 123 2.0 4.0 0.00 0.00 0.00 89 1018.2
20220808102004 77 123 2.0 5.0 0.00 0.00 0.00 89 1018.3
20220808101504 77 123 2.0 6.0 0.00 0.00 0.00 88 1018.3
20220808101004 77 123 2.0 6.0 0.00 0.00 0.00 88 1018.3
20220808100504 77 123 2.0 6.0 0.00 0.00 0.00 88 1018.4
20220808100004 77 123 2.0 6.0 0.00 0.00 0.00 88 1018.4
20220808095504 77 123 1.0 6.0 0.00 0.00 0.00 88 1018.3
20220808095004 77 123 1.0 4.0 0.00 0.00 0.00 87 1018.4
20220808094504 77 123 1.0 4.0 0.00 0.00 0.00 87 1018.4
20220808094004 77 123 2.0 4.0 0.00 0.00 0.00 87 1018.3
20220808093504 77 123 2.0 5.0 0.00 0.00 0.00 87 1018.3
20220808093004 77 123 2.0 5.0 0.00 0.00 0.00 87 1018.4
20220808092504 77 123 2.0 5.0 0.00 0.00 0.00 86 1018.4
20220808092004 77 123 2.0 6.0 0.00 0.00 0.00 86 1018.4
20220808091504 78 123 2.0 6.0 0.00 0.00 0.00 86 1018.5
20220808091004 78 123 2.0 6.0 0.00 0.00 0.00 85 1018.4
20220808090503 78 123 4.0 6.0 0.00 0.00 0.00 85 1018.4
20220808090003 78 123 4.0 6.0 0.00 0.00 0.00 85 1018.4
20220808085504 78 123 4.0 8.0 0.00 0.00 0.00 85 1018.4
20220808085004 78 122 4.0 8.0 0.00 0.00 0.00 85 1018.4
20220808084504 78 119 4.0 8.0 0.00 0.00 0.00 84 1018.4
20220808084004 78 128 4.0 10.0 0.00 0.00 0.00 84 1018.4
20220808083503 78 147 4.0 10.0 0.00 0.00 0.00 84 1018.4
20220808083004 79 153 5.0 8.0 0.00 0.00 0.00 84 1018.5
20220808082503 79 153 4.0 8.0 0.00 0.00 0.00 84 1018.5
20220808082003 79 153 4.0 7.0 0.00 0.00 0.00 84 1018.6
20220808081504 79 153 5.0 7.0 0.00 0.00 0.00 84 1018.6
20220808081003 79 153 5.0 7.0 0.00 0.00 0.00 83 1018.5
20220808080503 79 153 4.0 7.0 0.00 0.00 0.00 83 1018.6
20220808080004 79 152 5.0 10.0 0.00 0.00 0.00 83 1018.6
20220808075503 79 151 5.0 10.0 0.00 0.00 0.00 83 1018.6
20220808075004 79 149 5.0 10.0 0.00 0.00 0.00 82 1018.6
20220808074504 79 148 5.0 10.0 0.00 0.00 0.00 82 1018.6
20220808074004 79 151 5.0 12.0 0.00 0.00 0.00 82 1018.6
20220808073504 80 149 5.0 12.0 0.00 0.00 0.00 82 1018.6
20220808073003 80 151 5.0 11.0 0.00 0.00 0.00 82 1018.6
20220808072503 80 159 5.0 11.0 0.00 0.00 0.00 82 1018.7
20220808072003 79 158 4.0 8.0 0.00 0.00 0.00 82 1018.8
20220808071504 79 158 2.0 6.0 0.00 0.00 0.00 81 1018.7
20220808071004 79 159 4.0 6.0 0.00 0.00 0.00 81 1018.7
20220808070504 80 159 4.0 8.0 0.00 0.00 0.00 80 1018.7
20220808070004 80 158 4.0 8.0 0.00 0.00 0.00 80 1018.6
20220808065503 80 157 4.0 8.0 0.00 0.00 0.00 80 1018.6
20220808065004 79 157 4.0 8.0 0.00 0.00 0.00 80 1018.6
20220808064504 79 154 4.0 10.0 0.00 0.00 0.00 79 1018.6
20220808064003 79 151 2.0 10.0 0.00 0.00 0.00 79 1018.7
20220808063503 79 150 1.0 4.0 0.00 0.00 0.00 78 1018.7
20220808063004 79 150 1.0 2.0 0.00 0.00 0.00 78 1018.7
20220808062504 80 150 2.0 4.0 0.00 0.00 0.00 78 1018.8
20220808062004 80 150 2.0 4.0 0.00 0.00 0.00 77 1018.7
20220808061504 80 150 2.0 4.0 0.00 0.00 0.00 77 1018.7
20220808061003 80 150 2.0 5.0 0.00 0.00 0.00 76 1018.7
20220808060503 81 148 4.0 10.0 0.00 0.00 0.00 76 1018.5
20220808060004 81 145 4.0 10.0 0.00 0.00 0.00 75 1018.5
20220808055503 81 144 5.0 11.0 0.00 0.00 0.00 75 1018.5
20220808055003 81 152 5.0 11.0 0.00 0.00 0.00 75 1018.5
20220808054503 81 158 5.0 8.0 0.00 0.00 0.00 74 1018.6
20220808054004 82 159 5.0 8.0 0.00 0.00 0.00 74 1018.6
20220808053503 82 161 5.0 11.0 0.00 0.00 0.00 74 1018.5
20220808053004 82 160 5.0 11.0 0.00 0.00 0.00 74 1018.5
20220808052503 82 156 5.0 10.0 0.00 0.00 0.00 73 1018.4
20220808052003 82 146 4.0 10.0 0.00 0.00 0.00 73 1018.4
20220808051503 82 138 4.0 7.0 0.00 0.00 0.00 73 1018.3
20220808051003 82 137 4.0 7.0 0.00 0.00 0.00 73 1018.2
20220808050503 82 135 4.0 7.0 0.00 0.00 0.00 72 1018.2
20220808050004 82 134 4.0 7.0 0.00 0.00 0.00 72 1018.3
20220808045503 82 135 4.0 10.0 0.00 0.00 0.00 71 1018.3
20220808045003 83 143 5.0 10.0 0.00 0.00 0.00 71 1018.3
20220808044503 83 143 5.0 8.0 0.00 0.00 0.00 71 1018.3
20220808044003 83 144 5.0 8.0 0.00 0.00 0.00 70 1018.3
20220808043503 83 150 5.0 8.0 0.00 0.00 0.00 70 1018.2
20220808043004 83 149 5.0 13.0 0.00 0.00 0.00 70 1018.1
20220808042503 84 148 5.0 13.0 0.00 0.00 0.00 69 1018.1
20220808042003 84 147 5.0 12.0 0.00 0.00 0.00 69 1018.0
20220808041503 84 131 6.0 12.0 0.00 0.00 0.00 69 1018.0
20220808041004 84 123 6.0 12.0 0.00 0.00 0.00 69 1017.9
20220808040503 84 134 5.0 13.0 0.00 0.00 0.00 69 1017.9
20220808040003 84 137 5.0 13.0 0.00 0.00 0.00 68 1018.0
20220808035503 84 131 5.0 10.0 0.00 0.00 0.00 68 1017.9
20220808035003 84 125 5.0 10.0 0.00 0.00 0.00 68 1017.9
20220808034503 84 127 5.0 10.0 0.00 0.00 0.00 67 1018.0
20220808034004 84 130 5.0 8.0 0.00 0.00 0.00 67 1017.9
20220808033503 84 130 4.0 11.0 0.00 0.00 0.00 67 1017.8
20220808033003 84 128 5.0 12.0 0.00 0.00 0.00 66 1017.7
20220808032503 84 124 5.0 12.0 0.00 0.00 0.00 67 1017.7
20220808032004 84 121 4.0 8.0 0.00 0.00 0.00 66 1017.7
20220808031503 84 121 4.0 8.0 0.00 0.00 0.00 66 1017.6
20220808031003 84 121 4.0 8.0 0.00 0.00 0.00 65 1017.6
20220808030503 84 121 4.0 8.0 0.00 0.00 0.00 65 1017.6
20220808030003 84 121 4.0 8.0 0.00 0.00 0.00 65 1017.6
20220808025503 85 120 4.0 11.0 0.00 0.00 0.00 65 1017.5
20220808025003 85 126 4.0 11.0 0.00 0.00 0.00 64 1017.3
20220808024503 85 122 4.0 11.0 0.00 0.00 0.00 64 1017.4
20220808024003 85 115 5.0 10.0 0.00 0.00 0.00 64 1017.2
20220808023503 85 119 4.0 11.0 0.00 0.00 0.00 63 1017.2
20220808023003 85 120 4.0 11.0 0.00 0.00 0.00 63 1017.2
20220808022503 85 121 4.0 10.0 0.00 0.00 0.00 63 1017.2
20220808022003 85 121 4.0 10.0 0.00 0.00 0.00 62 1017.3
20220808021503 86 122 5.0 12.0 0.00 0.00 0.00 62 1017.1
20220808021003 86 132 5.0 12.0 0.00 0.00 0.00 61 1017.1
20220808020504 86 144 5.0 8.0 0.00 0.00 0.00 61 1017.1
20220808020004 86 148 5.0 11.0 0.00 0.00 0.00 61 1017.0
20220808015503 86 136 5.0 11.0 0.00 0.00 0.00 60 1016.8
20220808015003 86 123 5.0 11.0 0.00 0.00 0.00 60 1016.9
20220808014503 86 132 6.0 14.0 0.00 0.00 0.00 59 1017.0
20220808014003 87 139 6.0 14.0 0.00 0.00 0.00 59 1016.9
20220808013504 87 146 6.0 12.0 0.00 0.00 0.00 58 1016.8
20220808013003 87 156 6.0 12.0 0.00 0.00 0.00 58 1016.8
20220808012503 87 151 6.0 11.0 0.00 0.00 0.00 58 1016.7
20220808012004 87 138 6.0 13.0 0.00 0.00 0.00 57 1016.8
20220808011503 88 139 6.0 13.0 0.00 0.00 0.00 57 1016.7
20220808011003 88 149 6.0 12.0 0.00 0.00 0.00 56 1016.8
20220808010503 88 147 6.0 12.0 0.00 0.00 0.00 56 1017.0
20220808010003 88 143 7.0 18.0 0.00 0.00 0.00 55 1016.7
20220808005503 89 148 8.0 18.0 0.00 0.00 0.00 55 1016.6
20220808005003 89 132 7.0 17.0 0.00 0.00 0.00 53 1016.6
20220808004503 90 110 7.0 13.0 0.00 0.00 0.00 53 1016.4
20220808004003 90 101 6.0 12.0 0.00 0.00 0.00 52 1016.4
20220808003503 90 97 6.0 12.0 0.00 0.00 0.00 52 1016.3
20220808003003 90 105 7.0 14.0 0.00 0.00 0.00 51 1016.3
20220808002503 90 110 8.0 18.0 0.00 0.00 0.00 51 1016.3
20220808002003 90 108 8.0 18.0 0.00 0.00 0.00 51 1016.3
20220808001503 90 108 8.0 16.0 0.00 0.00 0.00 50 1016.3
20220808001003 91 109 10.0 18.0 0.00 0.00 0.00 50 1016.2
20220808000503 91 112 10.0 18.0 0.00 0.00 0.00 49 1016.2
20220808000003 91 110 10.0 20.0 0.00 0.00 0.00 49 1016.1
20220807235503 91 110 10.0 20.0 0.00 0.00 0.00 49 1016.0
20220807235003 92 112 11.0 30.0 0.00 0.00 0.00 49 1016.1
20220807234503 92 112 10.0 30.0 0.00 0.00 0.00 49 1016.1
20220807234003 92 118 11.0 19.0 0.00 0.00 0.00 48 1016.1
20220807233504 92 119 12.0 24.0 0.00 0.00 0.00 48 1016.0
20220807233004 93 116 11.0 24.0 0.00 0.00 0.00 47 1016.2
20220807232504 94 113 10.0 20.0 0.00 0.00 0.00 45 1016.2
20220807232004 94 123 8.0 16.0 0.00 0.00 0.00 45 1016.2
20220807231504 94 129 8.0 17.0 0.00 0.00 0.00 45 1016.1
20220807231004 95 123 8.0 17.0 0.00 0.00 0.00 45 1016.1
20220807230504 94 127 10.0 23.0 0.00 0.00 0.00 45 1016.1
20220807230004 95 126 10.0 25.0 0.00 0.00 0.00 44 1016.1
20220807225504 96 117 10.0 25.0 0.00 0.00 0.00 42 1016.2
20220807225004 96 114 11.0 20.0 0.00 0.00 0.00 42 1016.2
20220807224504 96 115 10.0 20.0 0.00 0.00 0.00 43 1016.1
20220807224004 97 112 8.0 20.0 0.00 0.00 0.00 42 1015.9
20220807223504 97 108 8.0 17.0 0.00 0.00 0.00 40 1015.9
20220807223004 97 111 8.0 14.0 0.00 0.00 0.00 40 1015.9
20220807222504 97 99 8.0 16.0 0.00 0.00 0.00 40 1015.8
20220807222004 97 99 8.0 17.0 0.00 0.01 0.00 41 1015.9
20220807221504 97 109 10.0 22.0 0.00 0.01 0.00 40 1015.8
20220807221004 97 106 11.0 22.0 0.00 0.01 0.00 40 1016.1
20220807220503 97 107 8.0 20.0 0.00 0.01 0.00 40 1016.0
20220807220004 99 103 10.0 20.0 0.00 0.01 0.00 38 1016.0
20220807215504 99 102 8.0 20.0 0.00 0.03 0.00 38 1016.0
20220807215003 101 109 8.0 18.0 0.00 0.03 0.00 36 1016.0
20220807214503 100 97 8.0 18.0 0.00 0.04 0.00 38 1016.1
20220807214004 100 96 8.0 17.0 0.00 0.04 0.00 37 1016.0
20220807213504 100 102 8.0 17.0 0.00 0.04 0.00 39 1016.0
20220807213003 100 98 8.0 22.0 0.00 0.04 0.00 38 1016.0
20220807212503 100 100 10.0 22.0 0.00 0.04 0.00 38 1016.0
20220807212003 99 108 10.0 22.0 0.00 0.04 0.00 38 1016.2
20220807211503 101 112 8.0 20.0 0.00 0.04 0.00 37 1016.0
20220807211004 100 105 10.0 22.0 0.00 0.04 0.00 38 1016.1
20220807210504 100 119 10.0 22.0 0.00 0.04 0.00 38 1016.3
20220807210004 101 162 10.0 19.0 0.00 0.04 0.00 35 1016.4
20220807205503 101 154 8.0 19.0 0.00 0.04 0.00 33 1016.7
20220807205004 100 144 8.0 17.0 0.00 0.04 0.00 34 1016.6
20220807204504 98 168 10.0 19.0 0.00 0.04 0.00 37 1016.7
20220807204004 100 171 10.0 19.0 0.00 0.04 0.00 36 1016.8
20220807203504 101 165 10.0 17.0 0.00 0.04 0.00 36 1016.9
20220807203003 100 157 8.0 17.0 0.00 0.04 0.00 36 1016.9
20220807202503 100 133 7.0 18.0 0.00 0.04 0.00 36 1017.0
20220807202004 100 149 7.0 18.0 0.00 0.04 0.00 36 1017.0
20220807201504 99 161 7.0 16.0 0.00 0.04 0.00 37 1017.0
20220807201004 99 140 8.0 20.0 0.00 0.04 0.00 36 1017.2
20220807200504 101 133 7.0 20.0 0.00 0.04 0.00 35 1017.2
20220807200004 99 124 8.0 20.0 0.00 0.04 0.00 36 1017.2
20220807195504 98 122 10.0 23.0 0.00 0.04 0.00 37 1017.3
20220807195004 98 116 8.0 23.0 0.00 0.04 0.00 38 1017.3
20220807194504 97 134 7.0 16.0 0.00 0.04 0.00 38 1017.4
20220807194004 98 143 7.0 16.0 0.00 0.04 0.00 36 1017.5
20220807193504 100 135 8.0 18.0 0.00 0.04 0.00 35 1017.6
20220807193004 102 134 8.0 18.0 0.00 0.04 0.00 35 1017.6
20220807192504 99 122 7.0 18.0 0.00 0.04 0.00 37 1017.8
20220807192003 100 138 7.0 17.0 0.00 0.04 0.00 36 1017.9
20220807191504 100 156 7.0 19.0 0.00 0.04 0.00 36 1018.2
20220807191004 99 147 6.0 19.0 0.00 0.04 0.00 36 1018.2
20220807190504 100 149 7.0 17.0 0.00 0.04 0.00 37 1018.1
20220807190004 100 168 8.0 18.0 0.00 0.04 0.00 37 1018.1
20220807185503 98 178 6.0 18.0 0.00 0.04 0.00 37 1018.2
20220807185004 98 161 6.0 17.0 0.00 0.04 0.00 37 1018.3
20220807184504 97 155 6.0 17.0 0.00 0.04 0.00 38 1018.3
20220807184004 97 147 7.0 14.0 0.00 0.04 0.00 39 1018.5
20220807183504 98 144 8.0 19.0 0.00 0.04 0.00 37 1018.6
20220807183004 98 155 10.0 19.0 0.00 0.04 0.00 36 1018.6
20220807182503 97 149 10.0 18.0 0.00 0.04 0.00 38 1018.8
20220807182004 97 144 8.0 18.0 0.00 0.04 0.00 39 1018.8
20220807181503 97 141 8.0 18.0 0.00 0.04 0.00 39 1018.9
20220807181004 96 146 8.0 14.0 0.00 0.04 0.00 40 1018.9
20220807180503 94 156 7.0 13.0 0.00 0.04 0.00 44 1019.0
20220807180003 94 148 6.0 12.0 0.00 0.04 0.00 45 1019.2
20220807175503 94 168 6.0 12.0 0.00 0.04 0.00 45 1019.5
20220807175003 93 184 6.0 12.0 0.00 0.04 0.00 47 1019.5
20220807174503 91 163 6.0 13.0 0.00 0.04 0.00 48 1019.7
20220807174003 92 156 6.0 19.0 0.00 0.04 0.00 47 1019.7
20220807173503 92 165 7.0 19.0 0.00 0.04 0.00 45 1019.9
20220807173004 93 165 7.0 16.0 0.00 0.04 0.00 44 1020.0
20220807172503 93 148 8.0 19.0 0.00 0.04 0.00 46 1020.1
20220807172003 94 138 8.0 19.0 0.00 0.04 0.00 45 1020.1
20220807171503 93 153 8.0 17.0 0.00 0.04 0.00 45 1020.1
20220807171004 92 165 10.0 17.0 0.00 0.04 0.00 47 1020.2
20220807170503 91 174 10.0 19.0 0.00 0.04 0.00 50 1020.2
20220807170003 90 179 10.0 19.0 0.00 0.04 0.00 50 1020.2
20220807165503 90 166 8.0 17.0 0.00 0.04 0.00 48 1020.2
20220807165003 92 153 8.0 17.0 0.00 0.04 0.00 47 1020.3
20220807164503 91 142 10.0 19.0 0.00 0.04 0.00 49 1020.3
20220807164004 91 145 10.0 19.0 0.00 0.04 0.00 48 1020.4
20220807163503 91 161 8.0 19.0 0.00 0.04 0.00 48 1020.3
20220807163003 91 152 8.0 19.0 0.00 0.04 0.00 46 1020.3
20220807162503 91 141 8.0 17.0 0.00 0.04 0.00 50 1020.2
20220807162003 90 152 10.0 20.0 0.00 0.04 0.00 49 1020.4
20220807161503 90 143 10.0 20.0 0.00 0.04 0.00 49 1020.5
20220807161003 90 145 10.0 16.0 0.00 0.04 0.00 51 1020.6
20220807160503 90 155 8.0 17.0 0.00 0.04 0.00 53 1020.5
20220807160004 89 152 7.0 17.0 0.00 0.04 0.00 53 1020.4
20220807155503 89 151 8.0 19.0 0.00 0.04 0.00 53 1020.3
20220807155003 89 139 8.0 19.0 0.00 0.04 0.00 53 1020.4
20220807154503 89 131 8.0 18.0 0.00 0.04 0.00 54 1020.3
20220807154004 88 138 8.0 18.0 0.00 0.04 0.00 55 1020.3
20220807153503 88 161 7.0 13.0 0.00 0.04 0.00 57 1020.2
20220807153003 86 172 6.0 14.0 0.00 0.04 0.00 64 1020.4
20220807152503 86 156 7.0 17.0 0.00 0.04 0.00 65 1020.3
20220807152003 85 155 7.0 17.0 0.00 0.04 0.00 64 1020.4
20220807151503 85 155 7.0 18.0 0.00 0.04 0.00 65 1020.3
20220807151003 85 149 8.0 18.0 0.00 0.04 0.00 64 1020.3
20220807150503 86 144 8.0 16.0 0.00 0.04 0.00 65 1020.3
20220807150003 86 153 7.0 16.0 0.00 0.04 0.00 65 1020.4
20220807145503 85 161 6.0 16.0 0.00 0.04 0.00 70 1020.4
20220807145003 85 170 6.0 12.0 0.00 0.04 0.00 72 1020.2
20220807144503 84 181 6.0 11.0 0.00 0.04 0.00 73 1020.3
20220807144004 83 182 7.0 17.0 0.00 0.04 0.00 74 1020.3
20220807143504 84 173 7.0 17.0 0.00 0.04 0.00 73 1020.3
20220807143003 83 161 7.0 16.0 0.00 0.04 0.00 73 1020.2
20220807142503 84 147 7.0 13.0 0.00 0.04 0.00 75 1020.2
20220807142003 84 138 7.0 13.0 0.00 0.04 0.00 76 1020.2
20220807141503 84 141 6.0 13.0 0.00 0.04 0.00 77 1020.2
20220807141003 82 152 6.0 12.0 0.00 0.04 0.00 80 1020.3
20220807140503 81 164 6.0 13.0 0.00 0.04 0.00 83 1020.3
20220807140003 80 167 6.0 13.0 0.00 0.04 0.00 84 1020.2
20220807135503 80 169 6.0 12.0 0.00 0.04 0.00 84 1020.2
20220807135003 80 169 6.0 12.0 0.00 0.04 0.00 85 1020.2
20220807134503 80 168 6.0 12.0 0.00 0.04 0.00 85 1020.1
20220807134003 80 167 6.0 12.0 0.00 0.04 0.00 86 1020.1
20220807133503 80 162 6.0 12.0 0.00 0.04 0.00 85 1020.0
20220807133003 80 158 5.0 8.0 0.00 0.04 0.00 86 1020.0
20220807132503 80 156 5.0 10.0 0.00 0.04 0.00 87 1019.9
20220807132003 80 153 5.0 11.0 0.00 0.04 0.00 87 1019.8
20220807131503 80 152 5.0 11.0 0.00 0.04 0.00 88 1019.8
20220807131003 80 153 5.0 7.0 0.00 0.04 0.00 88 1019.6